Showing default

QIANFAN-25, 61558

Orbit data source: Space-Track

QIANFAN-25, 61558 is a Chinese payload satellite in LEO that was launched on Tue, 15 Oct 2024 UTC via a CHANG ZHENG 6A launch vehicle from the Taiyaun Space Center, China (TSC). Payloads include a variety of satellites, spacecraft, and rockets equipped with specific instruments for various scientific and technological missions. These include communications satellites like Starlink; space stations such as the ISS; scientific satellites like the Hubble; Earth observation satellites from companies like Planet Labs, Umbra, and HawkEye 360; GPS; miniature CubeSats for education and research; and military/defense satellites.

Loading next visibility...
QIANFAN-25 details
Identifier
61558, 2024-185G
Orbit
LEO
Last TLE update6 hours ago
Origin
Flag of CNYUANX (CN / PRC)
ManufacturerGESIH/SECM
MissionOperational spacecraft
Bus & MotorQIANFAN, Unknown motor
Mass300 kg wet, ~300 kg dry
Launch date (UTC)
2024-10-15 (3 months ago)
Launch vehicle
CHANG ZHENG 6A
Launch site
Taiyaun Space Center, China (TSC)
Object type
Payload
Rocket body
Debris
Shape & HBRUnknown
Radar Cross SectionLarge (>1 m²)

Expand to show TLE details & history

TLE from 6 hours ago
0 QIANFAN-25
1 61558U 24185G   25025.53357673  .00001097  00000-0  50661-3 0  9996
2 61558  88.9893 114.5567 0005332 254.9515 105.1085 14.20307917 24331
Epoch: 2025-01-25T12:48Z
Definitive object data (Epoch: 2025-01-25T12:48:21.029Z)
Latitude-0.00006°
Longitude157.38805°
Altitude828.368 km
Speed7.438 km/s
True Right ascension07h 38m 13s
True Declination0° 00' 00"
Sunlit
Object was in full shadow at TLE epoch
Visualization TLE readout
Latitude-85.25843°
Longitude-10.42776°
Altitude849.26 km
Speed7.429 km/s
Apparent Right ascension08h 28m 32s
Apparent Declination-69° 05' 16"
Sunlit
Object is in daylight
Visualization observer readout
Local Sidereal Time20:28:20
Azimuth180.035° SSW
Elevation-60.828°
Doppler factor1
Orbital elements
Apogee altitude825.101 km
Perigee altitude817.424 km
Semi-major axis7,199.399 km
Eccentricity0.0005332
Inclination88.9893°
RAAN114.5567°
Arg. of periapsis254.9515°
True anomaly105.16748°
Mean anomaly105.1085°
Eccentric anomaly105.13799°
Mean motion3.55303 °/min
BSTAR0.00050661
Orbital period101.32 mins
Loading maneuver chart data...
Loading historical data...
Loading historical data...
Loading historical data...
Loading historical data...
Loading historical data...
Loading historical data...
Loading historical data...

QIANFAN-25 Visibility forecast

Observer location: undefined°, undefined

Span
Click to sort rows by Start time (UTC) header in descending order
Start Az.
Max El. time (UTC)
Max El. Az.
Max El.
End time (UTC)
End Az.
9 mins2025-01-26 05:49:27.270Z158.441° S2025-01-26 05:54:27.270Z72.17° E38.649°2025-01-26 05:58:27.270Z11.759° NNE
6 mins2025-01-26 07:33:27.270Z250.161° W2025-01-26 07:35:27.270Z275.114° WNW16.947°2025-01-26 07:39:27.270Z322.741° NNW
9 mins2025-01-26 18:08:27.270Z359.373° N2025-01-26 18:12:27.270Z282.477° WNW44.896°2025-01-26 18:17:27.270Z184.682° SSW
|